Tracking 30685 objects as of 18-Jun-2025
HD Live streaming from Space Station
objects crossing your sky now

OBJECT J

Track OBJECT J now!
10-day predictions


NORAD ID: 44887
Int'l Code: 2019-093J
Perigee: 595.1 km
Apogee: 612.5 km
Inclination: 97.8 °
Period: 96.6 minutes
Semi major axis: 6974 km
RCS: Unknown
Launch date: December 20, 2019
Source: (TBD)
Launch site: Taiyaun Space Center, China (TSC)

Note: This is a ROCKET BODY
Your satellite tracking list
Your tracking list is empty




NASA's NSSDC Master Catalog

Two Line Element Set (TLE):
1 44887U 19093J   25168.84789879  .00001950  00000-0  20569-3 0  9995
2 44887  97.8163 252.1758 0012475 195.2201 164.8643 14.90412932297685
Source of the keplerian elements: AFSPC